Location: Old Broadwell Mill Observatory
(33.8015°N, 85.8137°W)
Time: 02:50:20
(UTC-05:00)

Daily predictions for brighter satellites

Satellite Brightness Start Highest point End
(mag) Time Altitude Azimuth Time Altitude Azimuth Time Altitude Azimuth
ATLAS 3B R/B 4.5 00:01:50 10° N 00:06:04 22° NE 00:06:04 22° NE
ATLAS 2AS CENTAUR R/B 4.0 01:20:12 38° NNW 01:20:12 38° NNW 01:26:28 10° NNE
Resurs 1-4 Rocket 4.3 02:06:14 10° NE 02:08:31 18° ENE 02:08:31 18° ENE
CZ-2D R/B 4.1 02:16:06 10° NE 02:18:56 23° ENE 02:18:56 23° ENE
USA 215 4.4 02:21:16 10° NNE 02:26:56 33° NW 02:26:58 33° NW
COSMOS 2455 4.2 02:22:47 10° N 02:28:15 35° ENE 02:29:08 33° ENE
Cosmos 1943 Rocket 4.1 02:26:05 10° NNW 02:27:55 21° NNW 02:27:55 21° NNW
COSMOS 2406 4.3 02:35:40 41° NE 02:35:40 41° NE 02:39:29 10° NNE
NOSS 3-2 (C) 4.1 02:39:33 10° NNW 02:47:16 75° ENE 02:50:12 44° SE
ARIANE 5 R/B 3.6 02:46:01 10° NNE 02:49:48 41° NE 02:49:48 41° NE
SL-16 R/B 2.9 02:51:39 55° E 02:52:06 56° ENE 02:58:07 10° N
USA 267 4.0 02:50:10 10° ESE 02:56:25 51° NE 03:02:42 10° NNW
ADEOS Rocket 3.2 02:53:47 10° NNE 02:59:57 68° ESE 03:00:01 68° ESE
Cosmos 1818 4.3 03:07:00 49° E 03:07:00 49° E 03:11:30 10° NE
GEOS 3 Rocket 4.2 03:01:45 10° NNE 03:05:55 53° N 03:05:55 53° N
Cosmos 1934 Rocket 4.4 03:06:50 10° N 03:13:02 58° E 03:14:55 42° SE
NOSS 3-2 (A) 4.5 03:20:40 10° NW 03:26:14 43° WNW 03:26:14 43° WNW
Tiangong 1 4.4 03:33:00 12° NE 03:33:00 12° NE 03:33:27 10° NE
Lacrosse 5 rocket 2.3 03:41:40 46° NNW 03:41:40 46° NNW 03:45:39 10° NNE
Cosmos 1733 4.3 03:37:41 10° N 03:41:17 40° E 03:41:23 40° E
USA 161 4.0 03:48:14 21° NNE 03:48:14 21° NNE 03:49:26 10° N
Cosmos 389 Rocket 3.7 03:45:19 10° N 03:48:44 40° ENE 03:49:03 39° E
MOS 1 Rocket 3.4 03:44:34 10° NNE 03:48:55 62° E 03:49:35 54° SE
Cosmos 1624 Rocket 3.8 03:43:51 10° NNW 03:49:04 78° WSW 03:49:36 70° SSW
Cosmos 1758 Rocket 4.4 03:51:05 39° NW 03:51:05 39° NW 03:54:09 10° N
Resurs 1-4 Rocket 2.8 03:45:13 10° N 03:49:36 38° WNW 03:49:36 38° WNW
Cosmos-2242 3.5 03:49:21 10° N 03:53:42 60° E 03:55:20 35° SSE
USA 32 4.4 03:54:34 46° WNW 03:54:34 46° WNW 03:59:13 10° N
Meteor 2-5 Rocket 4.1 03:52:45 27° SSE 03:55:48 61° E 04:01:30 10° NNE
CZ-2D R/B 3.0 03:55:53 10° N 04:00:15 31° WNW 04:00:15 31° WNW
Cosmos 921 Rocket 2.9 03:57:49 10° NNW 04:02:18 70° WSW 04:02:19 70° WSW
Cosmos 2056 Rocket 3.4 03:57:14 10° NNW 04:02:29 62° WSW 04:03:28 52° SSW
MOS 1-B 4.4 03:56:41 10° NNE 04:02:31 80° ESE 04:05:27 31° S
Cosmos 2082 Rocket 2.5 04:08:27 25° S 04:11:44 63° ESE 04:17:22 10° NNE
Cosmos 1727 Rocket 3.9 04:10:06 35° SSW 04:12:47 67° W 04:18:55 10° N
Cosmos 1833 Rocket 3.1 04:09:33 23° S 04:12:59 58° ESE 04:18:29 10° NNE
COSMOS 2455 3.9 04:08:50 10° NW 04:12:08 26° WNW 04:12:08 26° WNW
Meteor 2-15 4.4 04:14:16 28° SSW 04:17:36 73° W 04:23:45 10° N
MOZ.5/SAFIR/RUBIN 5/SL-8 3.9 04:19:03 43° SW 04:19:54 49° W 04:24:27 10° NNW
CZ-4B R/B 3.8 04:19:41 10° NNE 04:24:55 53° E 04:30:04 10° S
Meteor 2-15 Rocket 4.4 04:21:54 21° SSW 04:26:08 74° W 04:32:17 10° N
Cosmos 1153 Rocket 4.3 04:20:20 10° N 04:26:28 76° W 04:32:34 10° S
Landsat 4 3.5 04:24:55 26° S 04:26:56 76° WSW 04:30:40 10° NNW
CZ-2D R/B 4.5 04:23:46 10° NNW 04:27:05 27° WNW 04:27:05 27° WNW
Cosmos 1707 3.3 04:27:49 38° W 04:27:53 38° W 04:31:31 10° N
ARIANE 5 R/B 4.2 04:26:32 10° NNW 04:29:45 17° WNW 04:30:09 16° WNW
SL-16 R/B 3.9 04:36:44 18° W 04:36:44 18° W 04:40:07 10° NW
Meteor 1-16 Rocket 4.0 04:31:42 10° N 04:37:05 85° W 04:42:23 10° S
Cosmos 1452 Rocket 3.4 04:32:17 10° NNW 04:37:32 76° WSW 04:42:45 10° S
Cosmos 1470 3.6 04:35:45 10° NNW 04:39:05 29° W 04:39:05 29° W
USA 267 3.6 04:33:27 10° SSE 04:39:26 38° SW 04:45:27 10° WNW
Cosmos 1802 Rocket 4.4 04:36:36 10° N 04:43:02 70° E 04:49:22 10° SSE
COSMOS 2487 3.7 04:43:51 24° W 04:44:13 25° WNW 04:47:13 10° NNW
IRS-1C Rocket 4.1 04:41:36 10° NNE 04:46:53 88° WNW 04:52:09 10° SSW
Cosmos 1378 3.9 04:46:11 28° WSW 04:47:06 32° W 04:50:30 10° NNW
Intercosmos 25 4.3 04:41:40 10° NNW 04:48:01 48° W 04:51:39 13° SSW
CENTAUR R/B 3.2 04:41:04 10° NW 04:48:56 55° WSW 04:57:05 10° S
GPS 2-05 Rocket1 2.8 04:47:25 30° WSW 04:48:59 78° SSE 04:52:26 10° ENE
BREEZE-M DEB (TANK) 4.1 04:42:40 16° SW 04:50:18 60° SSE 04:53:58 10° ENE
Cosmos 1459 Rocket 3.9 04:44:52 10° N 04:51:04 84° W 04:57:19 10° S
Intelsat 5-3 Rocket 3.9 04:51:19 17° SSW 04:51:40 17° SSW 04:53:46 10° SSE
Okean O Rocket 1.7 04:47:37 10° N 04:51:59 58° WNW 04:55:37 14° SSW
Cosmos 1420 Rocket 4.0 04:48:56 10° NNW 04:54:16 84° WSW 04:59:33 10° SSE
Cosmos 1048 Rocket 4.1 04:52:01 16° SW 04:55:57 55° WNW 05:01:00 10° N
ADEOS II 2.1 04:51:02 10° N 04:56:13 62° WNW 05:01:23 10° SSW
Meteor 1-24 Rocket 3.7 04:53:44 10° SSW 04:59:02 58° W 05:04:34 10° N
Timation 2 Rocket 4.1 04:52:40 10° SSW 04:59:25 82° WNW 05:05:57 10° NNE
In-Cosmos 22 4.0 04:55:20 10° S 05:00:41 87° W 05:05:59 10° N
Tiangong 1 2.1 05:05:19 10° NW 05:08:00 39° NNE 05:10:42 10° E
Cosmos 1269 Rocket 4.5 05:04:31 13° SW 05:08:54 42° WNW 05:13:55 10° N
Cosmos 1076 Rocket 3.8 05:06:00 10° S 05:10:12 71° E 05:14:25 10° N
IUS-18 SRM-1 2.9 05:14:09 14° SW 05:15:05 18° S 05:16:48 10° SE
SL-24 R/B 4.3 05:11:05 10° N 05:15:35 54° WNW 05:19:42 10° SSW
Cosmos 1408 Rocket 4.1 05:18:37 10° S 05:23:02 66° E 05:27:28 10° NNE
Delta 2 Rocket 2.7 05:23:24 10° WNW 05:26:45 89° N 05:30:10 10° ESE
Cosmos 1697 Rocket 2.6 05:22:18 10° NNW 05:27:55 76° WSW 05:33:30 10° SSE
Cosmos 2251 Rocket 3.7 05:22:59 10° S 05:28:14 78° ESE 05:33:33 10° NNE
Cosmos 2278 4.5 05:27:13 10° NW 05:32:08 30° WSW 05:37:01 10° SSW
EO 1 Del DPAF 3.8 05:28:46 10° SSW 05:32:20 36° W 05:35:55 10° NNW
